KVDFKMTH

Guest
Details From KVDF - Vandenberg
To KMTH - The Florida Keys Marathon
Flight Number -
Tags generated
Created
Modified
Stats Distance 209 nm / 388 km
Max Altitude 21,700 ft / 6,614 m
Waypoints 3
Social Downloads 1
Likes 0
Share VATSIM

Download

Looking for another format? Having issues loading an existing format? Contact us
Advertisement - Login to hide

Notes

Basic altitude profile: - Ascent Rate: 2500ft/min - Ascent Speed: 250kts - Cruise Altitude: 35000ft - Cruise Speed: 420kts - Descent Rate: 1500ft/min - Descent Speed: 250kts Options: - Use NATs: yes - Use PACOTS: yes - Use low airways: yes - Use high airways: yes

Route

KVDF CORFU KMTH

ID Type Via Altitude Latitude Longitude Leg Dist Tot Dist Heading (true) Name
O KVDF APT - 0 ft / 0 m 28.01313˚ -82.34603˚ - 0 nm - Vandenberg
CORFU FIX - 21,700 ft / 6,614 m 26.40496˚ -81.65236˚ 103 nm 103 nm 159° / 159° -
O KMTH APT - 0 ft / 0 m 24.72618˚ -81.05137˚ 105 nm 209 nm 162° / 162° The Florida Keys Marathon

Altitude Profile

Advertisement - Login to hide

Weather


0- 5 10 15 20 25 30 35+ Temperature / ° C

Clouds and Precipitation
Forecast for 2018-05-24 18:00 UTC. Updated 3 hours ago

Ground ~20,000 ft ~40,000 ft Winds

KVDF

Details ICAO KVDF
Name Vandenberg
Region United States
Timezone America/New_York (UTC-4.0)
Stats Elevation 22 ft / 7 m (AMSL)
Location 28.013126° -82.346029°
Runways 2
Magnetic Variation 5.724° W

METAR

KVDF 241955Z AUTO 00000KT 10SM SCT050 SCT080 SCT090 31/20 A3002 RMK AO2

Decode

TAF

Not found

Departure Runways

ID Width Length Bearing (true) Bearing (mag) Surface Threshold Offset Overrun Length
05 100 ft / 30 m 5,006 ft / 1,526 m 42.26° 47.98° Asphalt 400 ft / 122 m 0 ft / 0 m
18 75 ft / 23 m 3,271 ft / 997 m 180.19° 185.91° Asphalt 0 ft / 0 m 0 ft / 0 m
23 100 ft / 30 m 5,006 ft / 1,526 m 222.26° 227.98° Asphalt 800 ft / 244 m 0 ft / 0 m
36 75 ft / 23 m 3,271 ft / 997 m 0.19° 5.91° Asphalt 0 ft / 0 m 0 ft / 0 m

KMTH

Details ICAO KMTH (MTH)
Name The Florida Keys Marathon
Region United States
Timezone America/New_York (UTC-4.0)
Stats Elevation 5 ft / 2 m (AMSL)
Location 24.726183° -81.051368°
Runways 1
Magnetic Variation 6.057° W

METAR

KMTH 241953Z AUTO 12007KT 10SM CLR 29/23 A3001 RMK AO2 SLP160 T02890233

Decode

TAF

TAF AMD KMTH 242002Z 2420/2518 12009KT P6SM VCSH SCT020 BKN100= TAF AMD KMFE 242002Z 2420/2518 09009G16KT P6SM FEW060 FM242300 13008KT P6SM SCT050 TEMPO 2508/2512 BKN015 FM251300 15007KT P6SM SCT030

Decode

Destination Runways

ID Width Length Bearing (true) Bearing (mag) Surface Threshold Offset Overrun Length
07 98 ft / 30 m 5,006 ft / 1,526 m 67.17° 73.23° Asphalt 0 ft / 0 m 410 ft / 125 m
25 98 ft / 30 m 5,006 ft / 1,526 m 247.18° 253.24° Asphalt 0 ft / 0 m 410 ft / 125 m